ABS-2A (MONGOLSAT-1)

Last updated on Thu Oct 30 2025 00:02:50 GMT+0000 (Coordinated Universal Time)

1 41588U 16038A 25301.86615972 -.00000074 00000+0 00000+0 0 9999 2 41588 0.0125 274.8519 0001518 244.0189 265.1640 1.00271308 34389
UTC large
Height (km)
Speed (km/s)
/
Latitude / Longitude
Inclination (degrees)
Orbital Period (minutes)
Azimuth
Elevation
Range (km)
Doppler Factor

Next 0 passes for location: London (51.5072 / 0.1276)

Sorry there are no passes over London.